Weather History for KPMD - April, 2011

Change the Weather History Date:

Tuesday, April 26, 2011

  Actual Average Record
Temperature  
Mean Temperature 59 °F 61 °F  
Max Temperature 71 °F 76 °F 98 °F (1996)
Min Temperature 46 °F 46 °F 31 °F (1974)
Degree Days  
Heating Degree Days 6 5  
Month to date heating degree days 178 210  
Since 1 July heating degree days 2845 2831  
Cooling Degree Days 0 1  
Month to date cooling degree days 5 11  
Year to date cooling degree days 6 13  
Growing Degree Days 8 (Base 50)    
Moisture  
Dew Point 32 °F    
Average Humidity 43    
Maximum Humidity 71    
Minimum Humidity 14    
Precipitation  
Precipitation 0.00 in 0.02 in 0.60 in (1931)
Month to date precipitation 0.01 0.43  
Year to date precipitation 2.34 4.94  
Since 1 July precipitation 7.72  
Snow  
Snow 0.00 in - 0.00 in (2001)
Month to date snowfall 0.0  
Since 1 July snowfall 0.0  
Snow Depth 0.00 in    
Sea Level Pressure  
Sea Level Pressure 29.98 in    
Wind  
Wind Speed 18 mph (WNW)    
Max Wind Speed 35 mph    
Max Gust Speed 43 mph    
Visibility 10 miles    
Events      
T = Trace of Precipitation, MM = Missing Value Source: NWS Daily Summary

Daily Weather History Graph

Daily Weather History Graph

Search for Another Location

Airport or City:

Trip Planner

Search our weather history database for the weather conditions in past years. The results will help you decide how hot, cold, wet, or windy it might be!

Date:

Astronomy

Apr. 26, 2011 Rise Set
Actual Time 6:07 AM PDT 7:33 PM PDT
Civil Twilight 5:41 AM PDT 7:59 PM PDT
Nautical Twilight 5:09 AM PDT 8:31 PM PDT
Astronomical Twilight 4:36 AM PDT 9:04 PM PDT
Moon 2:31 AM PDT (4/26) 1:56 PM PDT (4/26)
Length of Visible Light 14h 18m
Length of Day
13h 25m
Waning Crescent, 34% of the Moon is Illuminated
Apr 26
Waning Crescent
May 2
New
May 10
First Quarter
May 17
Full
May 24
Last Quarter

Hourly Weather History & Observations

Time (PDT) Temp. Windchill Dew Point Humidity Pressure Visibility Wind Dir Wind Speed Gust Speed Precip Events Conditions
12:53 AM 57.0 °F - 42.1 °F 57% 29.93 in 10.0 mi WNW 32.2 mph 41.4 mph N/A   Clear
1:53 AM 54.0 °F - 41.0 °F 62% 29.96 in 10.0 mi SW 11.5 mph - N/A   Clear
2:53 AM 52.0 °F - 39.9 °F 63% 29.96 in 10.0 mi West 16.1 mph 27.6 mph N/A   Clear
3:53 AM 50.0 °F - 37.0 °F 61% 29.96 in 10.0 mi West 26.5 mph - N/A   Clear
4:53 AM 48.0 °F - 35.1 °F 61% 29.97 in 10.0 mi WNW 26.5 mph 32.2 mph N/A   Clear
5:53 AM 46.4 °F 38.1 °F 35.6 °F 66% 30.00 in 10.0 mi WNW 24.2 mph 29.9 mph N/A   Clear
6:53 AM 46.9 °F - 37.0 °F 68% 30.00 in 10.0 mi WNW 16.1 mph - N/A   Clear
7:53 AM 50.0 °F - 36.0 °F 59% 30.01 in 10.0 mi WNW 28.8 mph 33.4 mph N/A   Clear
8:53 AM 53.1 °F - 34.0 °F 48% 30.03 in 10.0 mi WNW 15.0 mph 24.2 mph N/A   Clear
9:53 AM 55.9 °F - 34.0 °F 44% 30.04 in 10.0 mi NW 18.4 mph - N/A   Clear
10:53 AM 59.0 °F - 33.1 °F 38% 30.03 in 10.0 mi West 20.7 mph 28.8 mph N/A   Clear
11:53 AM 61.0 °F - 32.0 °F 34% 30.01 in 10.0 mi NW 8.1 mph - N/A   Clear
12:53 PM 64.9 °F - 27.0 °F 24% 29.97 in 10.0 mi WNW 9.2 mph - N/A   Clear
1:53 PM 70.0 °F - 23.0 °F 17% 29.96 in 10.0 mi West 17.3 mph 24.2 mph N/A   Clear
2:53 PM 71.1 °F - 21.0 °F 15% 29.93 in 10.0 mi WNW 20.7 mph 31.1 mph N/A   Clear
3:53 PM 71.1 °F - 19.9 °F 14% 29.91 in 10.0 mi WNW 27.6 mph 33.4 mph N/A   Clear
4:53 PM 69.1 °F - 21.0 °F 16% 29.92 in 10.0 mi WNW 25.3 mph 32.2 mph N/A   Clear
5:53 PM 66.0 °F - 25.0 °F 21% 29.94 in 10.0 mi NW 16.1 mph 28.8 mph N/A   Clear
6:53 PM 61.0 °F - 28.9 °F 30% 29.96 in 10.0 mi WNW 23.0 mph 29.9 mph N/A   Clear
7:53 PM 57.0 °F - 32.0 °F 39% 29.99 in 10.0 mi WNW 23.0 mph 29.9 mph N/A   Clear
8:53 PM 55.9 °F - 30.9 °F 39% 30.00 in 10.0 mi WNW 19.6 mph - N/A   Clear
9:53 PM 55.9 °F - 28.9 °F 36% 30.01 in 10.0 mi WNW 12.7 mph - N/A   Clear
10:53 PM 55.0 °F - 30.9 °F 40% 30.02 in 10.0 mi West 13.8 mph - N/A   Clear
11:53 PM 54.0 °F - 32.0 °F 43% 30.03 in 10.0 mi West 8.1 mph - N/A   Clear